Tracking 35334 objects as of 13-Sep-2026
HD Live streaming from Space Station
objects crossing your sky now

SL-12 DEB


SL-12 DEB is no longer on orbit


NORAD ID: 28690
Int'l Code: 2002-037K
Launch date: July 25, 2002
Source: Commonwealth of Independent States (former USSR) (CIS)
Launch site: TYURATAM MISSILE AND SPACE COMPLEX (TTMTR)
Decay date: 2005-06-04

Note: This is SATELLITE DEBRIS
Your satellite tracking list
Your tracking list is empty




NASA's NSSDC Master Catalog

Two Line Element Set (TLE):
1 28690U 02037K   05154.29154564  .13924067  19957+0  13516+0 0  9995
2 28690 063.4573 134.6922 0302786 137.3926 225.1121 15.31149960   192
Source of the keplerian elements: AFSPC